Year,Month,Day,Hour,Minute,Value (Times are PST for temperature in C)
2009,04,08,00,00,7.80
2009,04,08,00,01,8.00
2009,04,08,00,02,8.10
2009,04,08,00,03,8.20
2009,04,08,00,04,8.30
2009,04,08,00,05,8.30
2009,04,08,00,06,8.40
2009,04,08,00,07,8.40
2009,04,08,00,08,8.40
2009,04,08,00,09,8.40
2009,04,08,00,10,8.40
2009,04,08,00,11,8.40
2009,04,08,00,12,8.30
2009,04,08,00,13,8.30
2009,04,08,00,14,8.20
2009,04,08,00,15,8.20
2009,04,08,00,16,8.10
2009,04,08,00,17,8.00
2009,04,08,00,18,7.90
2009,04,08,00,19,7.70
2009,04,08,00,20,7.60
2009,04,08,00,21,7.50
2009,04,08,00,22,7.50
2009,04,08,00,23,7.40
2009,04,08,00,24,7.40
2009,04,08,00,25,7.40
2009,04,08,00,26,7.40
2009,04,08,00,27,7.40
2009,04,08,00,28,7.30
2009,04,08,00,29,7.30
2009,04,08,00,30,7.20
2009,04,08,00,31,7.20
2009,04,08,00,32,7.20
2009,04,08,00,33,7.20
2009,04,08,00,34,7.10
2009,04,08,00,35,7.10
2009,04,08,00,36,7.10
2009,04,08,00,37,7.20
2009,04,08,00,38,7.20
2009,04,08,00,39,7.20
2009,04,08,00,40,7.30
2009,04,08,00,41,7.30
2009,04,08,00,42,7.30
2009,04,08,00,43,7.30
2009,04,08,00,44,7.30
2009,04,08,00,45,7.30
2009,04,08,00,46,7.30
2009,04,08,00,47,7.10
2009,04,08,00,48,6.90
2009,04,08,00,49,6.70
2009,04,08,00,50,6.50
2009,04,08,00,51,6.20
2009,04,08,00,52,6.00
2009,04,08,00,53,5.90
2009,04,08,00,54,5.90
2009,04,08,00,55,5.80
2009,04,08,00,56,5.90
2009,04,08,00,57,5.90
2009,04,08,00,58,5.80
2009,04,08,00,59,5.80
2009,04,08,01,00,5.70
2009,04,08,01,01,5.60
2009,04,08,01,02,5.60
2009,04,08,01,03,5.50
2009,04,08,01,04,5.40
2009,04,08,01,05,5.40
2009,04,08,01,06,5.40
2009,04,08,01,07,5.40
2009,04,08,01,08,5.40
2009,04,08,01,09,5.40
2009,04,08,01,10,5.40
2009,04,08,01,11,5.40
2009,04,08,01,12,5.40
2009,04,08,01,13,5.50
2009,04,08,01,14,5.60
2009,04,08,01,15,5.70
2009,04,08,01,16,5.80
2009,04,08,01,17,6.00
2009,04,08,01,18,6.10
2009,04,08,01,19,6.00
2009,04,08,01,20,5.90
2009,04,08,01,21,5.80
2009,04,08,01,22,5.80
2009,04,08,01,23,5.80
2009,04,08,01,24,5.70
2009,04,08,01,25,5.80
2009,04,08,01,26,5.70
2009,04,08,01,27,5.60
2009,04,08,01,28,5.50
2009,04,08,01,29,5.60
2009,04,08,01,30,5.60
2009,04,08,01,31,5.60
2009,04,08,01,32,5.60
2009,04,08,01,33,5.70
2009,04,08,01,34,5.70
2009,04,08,01,35,5.70
2009,04,08,01,36,5.70
2009,04,08,01,37,5.60
2009,04,08,01,38,5.60
2009,04,08,01,39,5.60
2009,04,08,01,40,5.60
2009,04,08,01,41,5.60
2009,04,08,01,42,5.60
2009,04,08,01,43,5.60
2009,04,08,01,44,5.60
2009,04,08,01,45,5.50
2009,04,08,01,46,5.50
2009,04,08,01,47,5.50
2009,04,08,01,48,5.50
2009,04,08,01,49,5.50
2009,04,08,01,50,5.50
2009,04,08,01,51,5.50
2009,04,08,01,52,5.50
2009,04,08,01,53,5.50
2009,04,08,01,54,5.50
2009,04,08,01,55,5.50
2009,04,08,01,56,5.60
2009,04,08,01,57,5.70
2009,04,08,01,58,5.70
2009,04,08,01,59,5.70
2009,04,08,02,00,5.80
2009,04,08,02,01,5.80
2009,04,08,02,02,5.80
2009,04,08,02,03,5.80
2009,04,08,02,04,5.80
2009,04,08,02,05,5.80
2009,04,08,02,06,5.80
2009,04,08,02,07,5.70
2009,04,08,02,08,5.70
2009,04,08,02,09,5.70
2009,04,08,02,10,5.70
2009,04,08,02,11,5.70
2009,04,08,02,12,5.70
2009,04,08,02,13,5.70
2009,04,08,02,14,5.70
2009,04,08,02,15,5.70
2009,04,08,02,16,5.70
2009,04,08,02,17,5.80
2009,04,08,02,18,5.90
2009,04,08,02,19,6.00
2009,04,08,02,20,6.00
2009,04,08,02,21,6.00
2009,04,08,02,22,5.80
2009,04,08,02,23,5.70
2009,04,08,02,24,5.60
2009,04,08,02,25,5.50
2009,04,08,02,26,5.30
2009,04,08,02,27,5.20
2009,04,08,02,28,5.10
2009,04,08,02,29,5.00
2009,04,08,02,30,5.00
2009,04,08,02,31,4.90
2009,04,08,02,32,4.90
2009,04,08,02,33,4.90
2009,04,08,02,34,4.90
2009,04,08,02,35,5.00
2009,04,08,02,36,5.00
2009,04,08,02,37,5.00
2009,04,08,02,38,5.10
2009,04,08,02,39,5.10
2009,04,08,02,40,5.10
2009,04,08,02,41,5.10
2009,04,08,02,42,5.10
2009,04,08,02,43,5.00
2009,04,08,02,44,5.00
2009,04,08,02,45,4.90
2009,04,08,02,46,4.90
2009,04,08,02,47,4.90
2009,04,08,02,48,4.90
2009,04,08,02,49,4.80
2009,04,08,02,50,4.80
2009,04,08,02,51,4.90
2009,04,08,02,52,4.90
2009,04,08,02,53,4.90
2009,04,08,02,54,4.90
2009,04,08,02,55,4.90
2009,04,08,02,56,4.80
2009,04,08,02,57,4.80
2009,04,08,02,58,4.70
2009,04,08,02,59,4.70
2009,04,08,03,00,4.70
2009,04,08,03,01,4.70
2009,04,08,03,02,4.70
2009,04,08,03,03,4.70
2009,04,08,03,04,4.70
2009,04,08,03,05,4.70
2009,04,08,03,06,4.80
2009,04,08,03,07,4.90
2009,04,08,03,08,5.00
2009,04,08,03,09,5.00
2009,04,08,03,10,5.10
2009,04,08,03,11,5.10
2009,04,08,03,12,5.00
2009,04,08,03,13,4.90
2009,04,08,03,14,4.80
2009,04,08,03,15,4.80
2009,04,08,03,16,4.80
2009,04,08,03,17,4.80
2009,04,08,03,18,4.80
2009,04,08,03,19,4.70
2009,04,08,03,20,4.70
2009,04,08,03,21,4.70
2009,04,08,03,22,4.70
2009,04,08,03,23,4.70
2009,04,08,03,24,4.60
2009,04,08,03,25,4.50
2009,04,08,03,26,4.40
2009,04,08,03,27,4.30
2009,04,08,03,28,4.20
2009,04,08,03,29,4.10
2009,04,08,03,30,4.10
2009,04,08,03,31,4.10
2009,04,08,03,32,4.20
2009,04,08,03,33,4.20
2009,04,08,03,34,4.30
2009,04,08,03,35,4.30
2009,04,08,03,36,4.30
2009,04,08,03,37,4.30
2009,04,08,03,38,4.30
2009,04,08,03,39,4.20
2009,04,08,03,40,4.20
2009,04,08,03,41,4.10
2009,04,08,03,42,4.10
2009,04,08,03,43,4.00
2009,04,08,03,44,3.90
2009,04,08,03,45,3.90
2009,04,08,03,46,3.90
2009,04,08,03,47,3.80
2009,04,08,03,48,3.80
2009,04,08,03,49,3.80
2009,04,08,03,50,3.90
2009,04,08,03,51,4.00
2009,04,08,03,52,4.00
2009,04,08,03,53,4.10
2009,04,08,03,54,4.10
2009,04,08,03,55,4.10
2009,04,08,03,56,4.10
2009,04,08,03,57,4.10
2009,04,08,03,58,4.10
2009,04,08,03,59,4.00
2009,04,08,04,00,3.90
2009,04,08,04,01,3.80
2009,04,08,04,02,3.70
2009,04,08,04,03,3.60
2009,04,08,04,04,3.50
2009,04,08,04,05,3.40
2009,04,08,04,06,3.40
2009,04,08,04,07,3.40
2009,04,08,04,08,3.30
2009,04,08,04,09,3.40
2009,04,08,04,10,3.40
2009,04,08,04,11,3.50
2009,04,08,04,12,3.50
2009,04,08,04,13,3.60
2009,04,08,04,14,3.60
2009,04,08,04,15,3.60
2009,04,08,04,16,3.60
2009,04,08,04,17,3.50
2009,04,08,04,18,3.60
2009,04,08,04,19,3.70
2009,04,08,04,20,3.80
2009,04,08,04,21,3.90
2009,04,08,04,22,4.00
2009,04,08,04,23,4.10
2009,04,08,04,24,4.10
2009,04,08,04,25,4.10
2009,04,08,04,26,4.00
2009,04,08,04,27,4.00
2009,04,08,04,28,3.90
2009,04,08,04,29,3.90
2009,04,08,04,30,3.80
2009,04,08,04,31,3.70
2009,04,08,04,32,3.70
2009,04,08,04,33,3.60
2009,04,08,04,34,3.50
2009,04,08,04,35,3.50
2009,04,08,04,36,3.40
2009,04,08,04,37,3.40
2009,04,08,04,38,3.30
2009,04,08,04,39,3.30
2009,04,08,04,40,3.30
2009,04,08,04,41,3.30
2009,04,08,04,42,3.30
2009,04,08,04,43,3.30
2009,04,08,04,44,3.30
2009,04,08,04,45,3.30
2009,04,08,04,46,3.40
2009,04,08,04,47,3.40
2009,04,08,04,48,3.40
2009,04,08,04,49,3.40
2009,04,08,04,50,3.40
2009,04,08,04,51,3.40
2009,04,08,04,52,3.30
2009,04,08,04,53,3.30
2009,04,08,04,54,3.30
2009,04,08,04,55,3.30
2009,04,08,04,56,3.30
2009,04,08,04,57,3.30
2009,04,08,04,58,3.30
2009,04,08,04,59,3.30
2009,04,08,05,00,3.30
2009,04,08,05,01,3.30
2009,04,08,05,02,3.30
2009,04,08,05,03,3.30
2009,04,08,05,04,3.30
2009,04,08,05,05,3.30
2009,04,08,05,06,3.40
2009,04,08,05,07,3.50
2009,04,08,05,08,3.50
2009,04,08,05,09,3.60
2009,04,08,05,10,3.60
2009,04,08,05,11,3.70
2009,04,08,05,12,3.70
2009,04,08,05,13,3.70
2009,04,08,05,14,3.60
2009,04,08,05,15,3.60
2009,04,08,05,16,3.60
2009,04,08,05,17,3.60
2009,04,08,05,18,3.60
2009,04,08,05,19,3.60
2009,04,08,05,20,3.50
2009,04,08,05,21,3.50
2009,04,08,05,22,3.40
2009,04,08,05,23,3.40
2009,04,08,05,24,3.30
2009,04,08,05,25,3.30
2009,04,08,05,26,3.30
2009,04,08,05,27,3.30
2009,04,08,05,28,3.20
2009,04,08,05,29,3.20
2009,04,08,05,30,3.20
2009,04,08,05,31,3.10
2009,04,08,05,32,3.20
2009,04,08,05,33,3.20
2009,04,08,05,34,3.20
2009,04,08,05,35,3.30
2009,04,08,05,36,3.30
2009,04,08,05,37,3.30
2009,04,08,05,38,3.30
2009,04,08,05,39,3.30
2009,04,08,05,40,3.30
2009,04,08,05,41,3.30
2009,04,08,05,42,3.20
2009,04,08,05,43,3.20
2009,04,08,05,44,3.20
2009,04,08,05,45,3.20
2009,04,08,05,46,3.20
2009,04,08,05,47,3.30
2009,04,08,05,48,3.30
2009,04,08,05,49,3.30
2009,04,08,05,50,3.30
2009,04,08,05,51,3.40
2009,04,08,05,52,3.40
2009,04,08,05,53,3.40
2009,04,08,05,54,3.40
2009,04,08,05,55,3.40
2009,04,08,05,56,3.40
2009,04,08,05,57,3.50
2009,04,08,05,58,3.50
2009,04,08,05,59,3.50
2009,04,08,06,00,3.50
2009,04,08,06,01,3.40
2009,04,08,06,02,3.40
2009,04,08,06,03,3.30
2009,04,08,06,04,3.30
2009,04,08,06,05,3.30
2009,04,08,06,06,3.30
2009,04,08,06,07,3.30
2009,04,08,06,08,3.30
2009,04,08,06,09,3.30
2009,04,08,06,10,3.30
2009,04,08,06,11,3.20
2009,04,08,06,12,3.20
2009,04,08,06,13,3.20
2009,04,08,06,14,3.20
2009,04,08,06,15,3.20
2009,04,08,06,16,3.10
2009,04,08,06,17,3.10
2009,04,08,06,18,3.10
2009,04,08,06,19,3.10
2009,04,08,06,20,3.10
2009,04,08,06,21,3.00
2009,04,08,06,22,3.00
2009,04,08,06,23,2.90
2009,04,08,06,24,2.90
2009,04,08,06,25,2.90
2009,04,08,06,26,2.80
2009,04,08,06,27,2.80
2009,04,08,06,28,2.80
2009,04,08,06,29,2.80
2009,04,08,06,30,2.80
2009,04,08,06,31,2.80
2009,04,08,06,32,2.80
2009,04,08,06,33,2.70
2009,04,08,06,34,2.70
2009,04,08,06,35,2.70
2009,04,08,06,36,2.70
2009,04,08,06,37,2.70
2009,04,08,06,38,2.70
2009,04,08,06,39,2.70
2009,04,08,06,40,2.70
2009,04,08,06,41,2.80
2009,04,08,06,42,2.80
2009,04,08,06,43,2.70
2009,04,08,06,44,2.70
2009,04,08,06,45,2.80
2009,04,08,06,46,2.80
2009,04,08,06,47,2.80
2009,04,08,06,48,2.80
2009,04,08,06,49,2.80
2009,04,08,06,50,2.80
2009,04,08,06,51,2.80
2009,04,08,06,52,2.80
2009,04,08,06,53,2.80
2009,04,08,06,54,2.80
2009,04,08,06,55,2.80
2009,04,08,06,56,2.90
2009,04,08,06,57,2.90
2009,04,08,06,58,3.00
2009,04,08,06,59,3.00
2009,04,08,07,00,3.10
2009,04,08,07,01,3.10
2009,04,08,07,02,3.20
2009,04,08,07,03,3.10
2009,04,08,07,04,3.10
2009,04,08,07,05,3.10
2009,04,08,07,06,3.20
2009,04,08,07,07,3.20
2009,04,08,07,08,3.20
2009,04,08,07,09,3.10
2009,04,08,07,10,3.10
2009,04,08,07,11,3.10
2009,04,08,07,12,3.10
2009,04,08,07,13,3.10
2009,04,08,07,14,3.10
2009,04,08,07,15,3.20
2009,04,08,07,16,3.30
2009,04,08,07,17,3.50
2009,04,08,07,18,3.60
2009,04,08,07,19,3.60
2009,04,08,07,20,3.60
2009,04,08,07,21,3.50
2009,04,08,07,22,3.30
2009,04,08,07,23,3.30
2009,04,08,07,24,3.30
2009,04,08,07,25,3.30
2009,04,08,07,26,3.30
2009,04,08,07,27,3.30
2009,04,08,07,28,3.40
2009,04,08,07,29,3.50
2009,04,08,07,30,3.60
2009,04,08,07,31,3.70
2009,04,08,07,32,3.70
2009,04,08,07,33,3.70
2009,04,08,07,34,3.70
2009,04,08,07,35,3.70
2009,04,08,07,36,3.80
2009,04,08,07,37,3.90
2009,04,08,07,38,3.90
2009,04,08,07,39,3.90
2009,04,08,07,40,3.80
2009,04,08,07,41,3.80
2009,04,08,07,42,3.80
2009,04,08,07,43,3.90
2009,04,08,07,44,3.90
2009,04,08,07,45,3.90
2009,04,08,07,46,3.90
2009,04,08,07,47,4.00
2009,04,08,07,48,4.00
2009,04,08,07,49,4.10
2009,04,08,07,50,4.30
2009,04,08,07,51,4.40
2009,04,08,07,52,4.40
2009,04,08,07,53,4.40
2009,04,08,07,54,4.40
2009,04,08,07,55,4.40
2009,04,08,07,56,4.40
2009,04,08,07,57,4.40
2009,04,08,07,58,4.40
2009,04,08,07,59,4.50
2009,04,08,08,00,4.50
2009,04,08,08,01,4.60
2009,04,08,08,02,4.60
2009,04,08,08,03,4.60
2009,04,08,08,04,4.50
2009,04,08,08,05,4.50
2009,04,08,08,06,4.50
2009,04,08,08,07,4.60
2009,04,08,08,08,4.70
2009,04,08,08,09,4.70
2009,04,08,08,10,4.90
2009,04,08,08,11,5.00
2009,04,08,08,12,5.10
2009,04,08,08,13,5.20
2009,04,08,08,14,5.30
2009,04,08,08,15,5.40
2009,04,08,08,16,5.50
2009,04,08,08,17,5.60
2009,04,08,08,18,5.80
2009,04,08,08,19,5.80
2009,04,08,08,20,6.00
2009,04,08,08,21,6.10
2009,04,08,08,22,6.20
2009,04,08,08,23,6.30
2009,04,08,08,24,6.40
2009,04,08,08,25,6.40
2009,04,08,08,26,6.40
2009,04,08,08,27,6.40
2009,04,08,08,28,6.50
2009,04,08,08,29,6.60
2009,04,08,08,30,6.70
2009,04,08,08,31,6.80
2009,04,08,08,32,6.90
2009,04,08,08,33,7.00
2009,04,08,08,34,7.00
2009,04,08,08,35,7.10
2009,04,08,08,36,7.10
2009,04,08,08,37,7.30
2009,04,08,08,38,7.40
2009,04,08,08,39,7.50
2009,04,08,08,40,7.60
2009,04,08,08,41,7.60
2009,04,08,08,42,7.70
2009,04,08,08,43,7.80
2009,04,08,08,44,7.80
2009,04,08,08,45,7.90
2009,04,08,08,46,7.90
2009,04,08,08,47,7.90
2009,04,08,08,48,8.00
2009,04,08,08,49,8.00
2009,04,08,08,50,8.10
2009,04,08,08,51,8.20
2009,04,08,08,52,8.30
2009,04,08,08,53,8.30
2009,04,08,08,54,8.40
2009,04,08,08,55,8.50
2009,04,08,08,56,8.50
2009,04,08,08,57,8.60
2009,04,08,08,58,8.60
2009,04,08,08,59,8.70
2009,04,08,09,00,8.70
2009,04,08,09,01,8.70
2009,04,08,09,02,8.70
2009,04,08,09,03,8.70
2009,04,08,09,04,8.70
2009,04,08,09,05,8.80
2009,04,08,09,06,8.80
2009,04,08,09,07,8.80
2009,04,08,09,08,8.80
2009,04,08,09,09,8.80
2009,04,08,09,10,8.80
2009,04,08,09,11,8.80
2009,04,08,09,12,8.80
2009,04,08,09,13,8.90
2009,04,08,09,14,8.90
2009,04,08,09,15,8.90
2009,04,08,09,16,9.00
2009,04,08,09,17,9.00
2009,04,08,09,18,9.10
2009,04,08,09,19,9.10
2009,04,08,09,20,9.10
2009,04,08,09,21,9.10
2009,04,08,09,22,9.20
2009,04,08,09,23,9.20
2009,04,08,09,24,9.20
2009,04,08,09,25,9.20
2009,04,08,09,26,9.30
2009,04,08,09,27,9.30
2009,04,08,09,28,9.30
2009,04,08,09,29,9.30
2009,04,08,09,30,9.30
2009,04,08,09,31,9.20
2009,04,08,09,32,9.20
2009,04,08,09,33,9.20
2009,04,08,09,34,9.20
2009,04,08,09,35,9.30
2009,04,08,09,36,9.30
2009,04,08,09,37,9.30
2009,04,08,09,38,9.40
2009,04,08,09,39,9.40
2009,04,08,09,40,9.40
2009,04,08,09,41,9.40
2009,04,08,09,42,9.40
2009,04,08,09,43,9.40
2009,04,08,09,44,9.50
2009,04,08,09,45,9.60
2009,04,08,09,46,9.60
2009,04,08,09,47,9.60
2009,04,08,09,48,9.70
2009,04,08,09,49,9.80
2009,04,08,09,50,9.80
2009,04,08,09,51,9.90
2009,04,08,09,52,9.90
2009,04,08,09,53,9.90
2009,04,08,09,54,9.90
2009,04,08,09,55,9.90
2009,04,08,09,56,9.90
2009,04,08,09,57,9.90
2009,04,08,09,58,9.80
2009,04,08,09,59,9.80
2009,04,08,10,00,9.70
2009,04,08,10,01,9.60
2009,04,08,10,02,9.60
2009,04,08,10,03,9.50
2009,04,08,10,04,9.40
2009,04,08,10,05,9.40
2009,04,08,10,06,9.40
2009,04,08,10,07,9.40
2009,04,08,10,08,9.30
2009,04,08,10,09,9.30
2009,04,08,10,10,9.30
2009,04,08,10,11,9.40
2009,04,08,10,12,9.40
2009,04,08,10,13,9.40
2009,04,08,10,14,9.40
2009,04,08,10,15,9.40
2009,04,08,10,16,9.40
2009,04,08,10,17,9.40
2009,04,08,10,18,9.50
2009,04,08,10,19,9.50
2009,04,08,10,20,9.60
2009,04,08,10,21,9.60
2009,04,08,10,22,9.60
2009,04,08,10,23,9.70
2009,04,08,10,24,9.60
2009,04,08,10,25,9.60
2009,04,08,10,26,9.60
2009,04,08,10,27,9.60
2009,04,08,10,28,9.50
2009,04,08,10,29,9.40
2009,04,08,10,30,9.40
2009,04,08,10,31,9.30
2009,04,08,10,32,9.20
2009,04,08,10,33,9.20
2009,04,08,10,34,9.20
2009,04,08,10,35,9.20
2009,04,08,10,36,9.20
2009,04,08,10,37,9.20
2009,04,08,10,38,9.20
2009,04,08,10,39,9.20
2009,04,08,10,40,9.30
2009,04,08,10,41,9.30
2009,04,08,10,42,9.30
2009,04,08,10,43,9.40
2009,04,08,10,44,9.40
2009,04,08,10,45,9.40
2009,04,08,10,46,9.40
2009,04,08,10,47,9.50
2009,04,08,10,48,9.60
2009,04,08,10,49,9.60
2009,04,08,10,50,9.60
2009,04,08,10,51,9.60
2009,04,08,10,52,9.60
2009,04,08,10,53,9.60
2009,04,08,10,54,9.60
2009,04,08,10,55,9.60
2009,04,08,10,56,9.50
2009,04,08,10,57,9.40
2009,04,08,10,58,9.40
2009,04,08,10,59,9.40
2009,04,08,11,00,9.40
2009,04,08,11,01,9.40
2009,04,08,11,02,9.40
2009,04,08,11,03,9.40
2009,04,08,11,04,9.30
2009,04,08,11,05,9.30
2009,04,08,11,06,9.30
2009,04,08,11,07,9.40
2009,04,08,11,08,9.40
2009,04,08,11,09,9.50
2009,04,08,11,10,9.50
2009,04,08,11,11,9.50
2009,04,08,11,12,9.60
2009,04,08,11,13,9.60
2009,04,08,11,14,9.70
2009,04,08,11,15,9.80
2009,04,08,11,16,9.80
2009,04,08,11,17,9.90
2009,04,08,11,18,9.90
2009,04,08,11,19,9.90
2009,04,08,11,20,10.00
2009,04,08,11,21,9.90
2009,04,08,11,22,9.90
2009,04,08,11,23,9.90
2009,04,08,11,24,10.00
2009,04,08,11,25,9.90
2009,04,08,11,26,9.90
2009,04,08,11,27,9.90
2009,04,08,11,28,9.80
2009,04,08,11,29,9.70
2009,04,08,11,30,9.60
2009,04,08,11,31,9.50
2009,04,08,11,32,9.50
2009,04,08,11,33,9.50
2009,04,08,11,34,9.60
2009,04,08,11,35,9.60
2009,04,08,11,36,9.50
2009,04,08,11,37,9.40
2009,04,08,11,38,9.40
2009,04,08,11,39,9.50
2009,04,08,11,40,9.50
2009,04,08,11,41,9.40
2009,04,08,11,42,9.50
2009,04,08,11,43,9.50
2009,04,08,11,44,9.60
2009,04,08,11,45,9.60
2009,04,08,11,46,9.60
2009,04,08,11,47,9.60
2009,04,08,11,48,9.60
2009,04,08,11,49,9.60
2009,04,08,11,50,9.60
2009,04,08,11,51,9.60
2009,04,08,11,52,9.60
2009,04,08,11,53,9.50
2009,04,08,11,54,9.50
2009,04,08,11,55,9.50
2009,04,08,11,56,9.40
2009,04,08,11,57,9.50
2009,04,08,11,58,9.50
2009,04,08,11,59,9.60
2009,04,08,12,00,9.60
2009,04,08,12,01,9.70
2009,04,08,12,02,9.70
2009,04,08,12,03,9.70
2009,04,08,12,04,9.60
2009,04,08,12,05,9.60
2009,04,08,12,06,9.70
2009,04,08,12,07,9.80
2009,04,08,12,08,9.80
2009,04,08,12,09,9.80
2009,04,08,12,10,9.80
2009,04,08,12,11,9.90
2009,04,08,12,12,9.90
2009,04,08,12,13,9.90
2009,04,08,12,14,9.90
2009,04,08,12,15,9.90
2009,04,08,12,16,10.00
2009,04,08,12,17,10.00
2009,04,08,12,18,10.10
2009,04,08,12,19,10.20
2009,04,08,12,20,10.30
2009,04,08,12,21,10.50
2009,04,08,12,22,10.50
2009,04,08,12,23,10.60
2009,04,08,12,24,10.70
2009,04,08,12,25,10.60
2009,04,08,12,26,10.60
2009,04,08,12,27,10.50
2009,04,08,12,28,10.40
2009,04,08,12,29,10.40
2009,04,08,12,30,10.40
2009,04,08,12,31,10.40
2009,04,08,12,32,10.40
2009,04,08,12,33,10.40
2009,04,08,12,34,10.40
2009,04,08,12,35,10.30
2009,04,08,12,36,10.20
2009,04,08,12,37,10.10
2009,04,08,12,38,10.10
2009,04,08,12,39,10.10
2009,04,08,12,40,10.00
2009,04,08,12,41,10.00
2009,04,08,12,42,9.90
2009,04,08,12,43,9.80
2009,04,08,12,44,9.70
2009,04,08,12,45,9.70
2009,04,08,12,46,9.60
2009,04,08,12,47,9.60
2009,04,08,12,48,9.60
2009,04,08,12,49,9.60
2009,04,08,12,50,9.60
2009,04,08,12,51,9.70
2009,04,08,12,52,9.60
2009,04,08,12,53,9.50
2009,04,08,12,54,9.40
2009,04,08,12,55,9.30
2009,04,08,12,56,9.30
2009,04,08,12,57,9.30
2009,04,08,12,58,9.20
2009,04,08,12,59,9.20
2009,04,08,13,00,9.20
2009,04,08,13,01,9.20
2009,04,08,13,02,9.30
2009,04,08,13,03,9.30
2009,04,08,13,04,9.20
2009,04,08,13,05,9.20
2009,04,08,13,06,9.20
2009,04,08,13,07,9.20
2009,04,08,13,08,9.20
2009,04,08,13,09,9.20
2009,04,08,13,10,9.10
2009,04,08,13,11,9.10
2009,04,08,13,12,9.10
2009,04,08,13,13,9.00
2009,04,08,13,14,9.00
2009,04,08,13,15,9.00
2009,04,08,13,16,9.10
2009,04,08,13,17,9.10
2009,04,08,13,18,9.10
2009,04,08,13,19,9.20
2009,04,08,13,20,9.20
2009,04,08,13,21,9.20
2009,04,08,13,22,9.30
2009,04,08,13,23,9.30
2009,04,08,13,24,9.40
2009,04,08,13,25,9.40
2009,04,08,13,26,9.40
2009,04,08,13,27,9.40
2009,04,08,13,28,9.40
2009,04,08,13,29,9.40
2009,04,08,13,30,9.40
2009,04,08,13,31,9.40
2009,04,08,13,32,9.40
2009,04,08,13,33,9.40
2009,04,08,13,34,9.40
2009,04,08,13,35,9.40
2009,04,08,13,36,9.40
2009,04,08,13,37,9.40
2009,04,08,13,38,9.40
2009,04,08,13,39,9.50
2009,04,08,13,40,9.60
2009,04,08,13,41,9.60
2009,04,08,13,42,9.70
2009,04,08,13,43,9.70
2009,04,08,13,44,9.70
2009,04,08,13,45,9.70
2009,04,08,13,46,9.70
2009,04,08,13,47,9.70
2009,04,08,13,48,9.70
2009,04,08,13,49,9.70
2009,04,08,13,50,9.70
2009,04,08,13,51,9.70
2009,04,08,13,52,9.70
2009,04,08,13,53,9.70
2009,04,08,13,54,9.70
2009,04,08,13,55,9.70
2009,04,08,13,56,9.70
2009,04,08,13,57,9.70
2009,04,08,13,58,9.70
2009,04,08,13,59,9.60
2009,04,08,14,00,9.60
2009,04,08,14,01,9.70
2009,04,08,14,02,9.60
2009,04,08,14,03,9.60
2009,04,08,14,04,9.60
2009,04,08,14,05,9.50
2009,04,08,14,06,9.40
2009,04,08,14,07,9.40
2009,04,08,14,08,9.30
2009,04,08,14,09,9.30
2009,04,08,14,10,9.40
2009,04,08,14,11,9.40
2009,04,08,14,12,9.40
2009,04,08,14,13,9.40
2009,04,08,14,14,9.40
2009,04,08,14,15,9.50
2009,04,08,14,16,9.50
2009,04,08,14,17,9.50
2009,04,08,14,18,9.50
2009,04,08,14,19,9.50
2009,04,08,14,20,9.50
2009,04,08,14,21,9.60
2009,04,08,14,22,9.60
2009,04,08,14,23,9.60
2009,04,08,14,24,9.50
2009,04,08,14,25,9.50
2009,04,08,14,26,9.40
2009,04,08,14,27,9.40
2009,04,08,14,28,9.30
2009,04,08,14,29,9.30
2009,04,08,14,30,9.30
2009,04,08,14,31,9.30
2009,04,08,14,32,9.30
2009,04,08,14,33,9.30
2009,04,08,14,34,9.30
2009,04,08,14,35,9.30
2009,04,08,14,36,9.30
2009,04,08,14,37,9.30
2009,04,08,14,38,9.30
2009,04,08,14,39,9.30
2009,04,08,14,40,9.30
2009,04,08,14,41,9.30
2009,04,08,14,42,9.30
2009,04,08,14,43,9.30
2009,04,08,14,44,9.30
2009,04,08,14,45,9.30
2009,04,08,14,46,9.30
2009,04,08,14,47,9.30
2009,04,08,14,48,9.30
2009,04,08,14,49,9.30
2009,04,08,14,50,9.30
2009,04,08,14,51,9.30
2009,04,08,14,52,9.30
2009,04,08,14,53,9.30
2009,04,08,14,54,9.30
2009,04,08,14,55,9.30
2009,04,08,14,56,9.40
2009,04,08,14,57,9.40
2009,04,08,14,58,9.50
2009,04,08,14,59,9.60
2009,04,08,15,00,9.60
2009,04,08,15,01,9.70
2009,04,08,15,02,9.70
2009,04,08,15,03,9.70
2009,04,08,15,04,9.70
2009,04,08,15,05,9.80
2009,04,08,15,06,9.90
2009,04,08,15,07,9.90
2009,04,08,15,08,10.00
2009,04,08,15,09,10.10
2009,04,08,15,10,10.20
2009,04,08,15,11,10.20
2009,04,08,15,12,10.30
2009,04,08,15,13,10.30
2009,04,08,15,14,10.40
2009,04,08,15,15,10.50
2009,04,08,15,16,10.70
2009,04,08,15,17,10.80
2009,04,08,15,18,10.90
2009,04,08,15,19,11.10
2009,04,08,15,20,11.20
2009,04,08,15,21,11.30
2009,04,08,15,22,11.40
2009,04,08,15,23,11.60
2009,04,08,15,24,11.60
2009,04,08,15,25,11.60
2009,04,08,15,26,11.50
2009,04,08,15,27,11.50
2009,04,08,15,28,11.50
2009,04,08,15,29,11.60
2009,04,08,15,30,11.60
2009,04,08,15,31,11.50
2009,04,08,15,32,11.40
2009,04,08,15,33,11.30
2009,04,08,15,34,11.20
2009,04,08,15,35,11.20
2009,04,08,15,36,11.20
2009,04,08,15,37,11.20
2009,04,08,15,38,11.20
2009,04,08,15,39,11.20
2009,04,08,15,40,11.20
2009,04,08,15,41,11.30
2009,04,08,15,42,11.30
2009,04,08,15,43,11.20
2009,04,08,15,44,11.20
2009,04,08,15,45,11.10
2009,04,08,15,46,11.00
2009,04,08,15,47,10.90
2009,04,08,15,48,10.90
2009,04,08,15,49,10.80
2009,04,08,15,50,10.80
2009,04,08,15,51,10.70
2009,04,08,15,52,10.70
2009,04,08,15,53,10.80
2009,04,08,15,54,10.70
2009,04,08,15,55,10.70
2009,04,08,15,56,10.60
2009,04,08,15,57,10.60
2009,04,08,15,58,10.50
2009,04,08,15,59,10.50
2009,04,08,16,00,10.40
2009,04,08,16,01,10.40
2009,04,08,16,02,10.40
2009,04,08,16,03,10.40
2009,04,08,16,04,10.40
2009,04,08,16,05,10.30
2009,04,08,16,06,10.20
2009,04,08,16,07,10.10
2009,04,08,16,08,10.10
2009,04,08,16,09,10.00
2009,04,08,16,10,9.90
2009,04,08,16,11,9.80
2009,04,08,16,12,9.80
2009,04,08,16,13,9.80
2009,04,08,16,14,9.90
2009,04,08,16,15,9.90
2009,04,08,16,16,9.90
2009,04,08,16,17,9.90
2009,04,08,16,18,9.90
2009,04,08,16,19,9.90
2009,04,08,16,20,9.90
2009,04,08,16,21,10.00
2009,04,08,16,22,10.00
2009,04,08,16,23,10.10
2009,04,08,16,24,10.10
2009,04,08,16,25,10.10
2009,04,08,16,26,10.10
2009,04,08,16,27,10.10
2009,04,08,16,28,10.10
2009,04,08,16,29,10.00
2009,04,08,16,30,10.00
2009,04,08,16,31,10.00
2009,04,08,16,32,10.00
2009,04,08,16,33,10.00
2009,04,08,16,34,9.90
2009,04,08,16,35,9.90
2009,04,08,16,36,9.90
2009,04,08,16,37,9.80
2009,04,08,16,38,9.90
2009,04,08,16,39,9.90
2009,04,08,16,40,9.90
2009,04,08,16,41,9.90
2009,04,08,16,42,9.90
2009,04,08,16,43,9.80
2009,04,08,16,44,9.90
2009,04,08,16,45,9.90
2009,04,08,16,46,9.90
2009,04,08,16,47,9.90
2009,04,08,16,48,9.80
2009,04,08,16,49,9.80
2009,04,08,16,50,9.90
2009,04,08,16,51,9.90
2009,04,08,16,52,9.90
2009,04,08,16,53,10.00
2009,04,08,16,54,10.00
2009,04,08,16,55,10.10
2009,04,08,16,56,10.10
2009,04,08,16,57,10.20
2009,04,08,16,58,10.20
2009,04,08,16,59,10.20
2009,04,08,17,00,10.30
2009,04,08,17,01,10.20
2009,04,08,17,02,10.30
2009,04,08,17,03,10.30
2009,04,08,17,04,10.30
2009,04,08,17,05,10.30
2009,04,08,17,06,10.30
2009,04,08,17,07,10.30
2009,04,08,17,08,10.30
2009,04,08,17,09,10.30
2009,04,08,17,10,10.30
2009,04,08,17,11,10.30
2009,04,08,17,12,10.30
2009,04,08,17,13,10.30
2009,04,08,17,14,10.30
2009,04,08,17,15,10.40
2009,04,08,17,16,10.40
2009,04,08,17,17,10.40
2009,04,08,17,18,10.50
2009,04,08,17,19,10.50
2009,04,08,17,20,10.50
2009,04,08,17,21,10.50
2009,04,08,17,22,10.50
2009,04,08,17,23,10.60
2009,04,08,17,24,10.60
2009,04,08,17,25,10.60
2009,04,08,17,26,10.60
2009,04,08,17,27,10.60
2009,04,08,17,28,10.60
2009,04,08,17,29,10.70
2009,04,08,17,30,10.70
2009,04,08,17,31,10.70
2009,04,08,17,32,10.70
2009,04,08,17,33,10.70
2009,04,08,17,34,10.70
2009,04,08,17,35,10.70
2009,04,08,17,36,10.70
2009,04,08,17,37,10.70
2009,04,08,17,38,10.70
2009,04,08,17,39,10.70
2009,04,08,17,40,10.70
2009,04,08,17,41,10.70
2009,04,08,17,42,10.70
2009,04,08,17,43,10.70
2009,04,08,17,44,10.70
2009,04,08,17,45,10.70
2009,04,08,17,46,10.70
2009,04,08,17,47,10.70
2009,04,08,17,48,10.70
2009,04,08,17,49,10.70
2009,04,08,17,50,10.70
2009,04,08,17,51,10.70
2009,04,08,17,52,10.70
2009,04,08,17,53,10.60
2009,04,08,17,54,10.60
2009,04,08,17,55,10.60
2009,04,08,17,56,10.50
2009,04,08,17,57,10.50
2009,04,08,17,58,10.40
2009,04,08,17,59,10.40